Wind_Speed
24 25 28 34 36 30 26 20 20 18 17 18 19 8 3 7 3 3 10 12 17 19 15 15 17 18 19 18 14 12 11 9 6 7 6 3 4 11 13 12 15 15 13 14 15 15 14 16 18
27 33 38 37 37 33 29 23 12 16 21 17 14 12 8 5 5 1 10 13 14 15 12 13 14 16 17 19 18 13 13 9 7 4 3 3 7 11 12 12 13 12 11 13 14 14 14 15 15
33 39 41 42 39 35 29 19 18 13 18 22 20 9 9 5 3 5 12 12 12 11 9 10 11 12 15 18 19 18 13 10 7 4 4 5 8 11 12 12 12 11 10 11 12 13 14 13 13
36 38 44 42 39 34 32 23 14 16 25 5 16 12 11 6 2 9 12 12 13 10 10 10 9 10 12 14 17 19 17 12 7 4 3 5 7 11 11 11 11 9 8 9 10 12 13 13 13
34 38 41 41 38 34 30 27 16 10 6 10 15 22 9 5 2 5 11 15 17 17 16 14 14 13 12 13 14 17 19 16 9 4 4 3 8 10 10 10 9 7 6 6 8 11 12 12 11
32 31 42 38 28 31 24 17 15 15 12 11 6 11 8 5 1 4 5 8 7 7 9 10 12 14 14 12 12 13 15 18 14 6 4 1 7 9 9 9 9 8 5 4 5 8 10 10 8
26 27 43 32 26 25 19 13 12 12 17 14 16 6 3 2 5 3 2 2 2 4 5 6 7 7 10 11 11 11 11 13 15 13 7 3 4 9 9 9 9 9 8 6 4 3 5 7 8
24 30 35 32 23 22 16 12 12 6 8 9 6 5 5 7 6 7 6 6 5 6 7 9 9 10 8 9 9 8 8 10 11 12 14 8 4 8 10 11 11 11 10 10 8 5 2 2 4
21 23 23 15 9 10 14 17 18 20 21 18 8 9 8 8 7 8 7 10 9 10 10 11 13 13 12 11 11 11 9 6 8 9 10 13 10 9 12 14 14 14 14 13 12 10 7 4 2
21 20 13 8 8 8 9 9 11 14 14 13 10 12 13 10 10 10 11 13 13 13 12 15 15 16 16 14 12 13 14 13 11 10 10 9 12 13 12 16 18 18 17 17 15 14 12 9 7
12 13 16 3 7 2 3 8 11 14 12 11 10 11 13 14 13 12 13 14 13 14 16 16 17 17 17 19 20 19 18 17 16 16 16 13 13 14 16 18 19 21 21 20 19 18 15 13 12
11 12 11 3 2 1 2 5 8 10 8 4 6 11 13 15 16 16 16 17 17 17 19 20 20 20 19 19 22 23 24 25 24 22 20 21 19 18 17 19 22 21 23 24 24 23 21 19 16
9 5 1 4 9 6 2 3 5 6 5 7 10 10 11 11 12 15 18 19 22 21 20 21 22 23 23 22 23 23 23 28 29 30 27 24 25 25 25 22 23 25 26 26 27 27 26 24 22
8 6 6 10 7 4 3 9 10 7 6 12 14 11 13 18 18 19 21 22 23 22 24 26 27 27 26 25 26 29 29 30 30 30 31 32 30 31 30 30 29 28 29 31 31 29 29 28 26
14 11 12 10 9 2 1 4 5 5 5 7 13 16 16 19 20 21 21 21 22 23 24 25 25 25 26 28 29 29 30 31 32 35 33 32 33 33 35 35 35 35 32 32 33 33 33 32 30
12 8 7 5 4 2 4 7 5 6 8 9 10 12 14 16 19 20 22 23 24 25 25 26 27 28 28 28 29 30 31 32 33 34 35 34 36 38 36 37 36 38 39 37 36 36 37 37 34
9 8 6 6 6 4 7 9 8 10 12 13 15 16 17 19 22 24 25 27 28 29 30 30 31 32 32 33 33 33 34 34 35 36 36 37 38 39 39 43 41 39 43 45 42 41 41 38 38
3 4 4 5 5 7 9 12 15 15 15 17 18 18 19 22 24 26 28 31 33 33 34 34 35 35 36 37 37 37 38 37 38 38 39 41 40 41 42 43 45 45 41 40 49 47 44 42 39
4 5 5 7 8 9 11 13 15 16 17 19 21 23 26 27 28 29 30 31 33 36 37 38 40 41 40 40 41 42 43 43 42 41 41 42 44 44 45 45 47 48 45 47 41 44 47 45 45
3 3 6 8 9 12 15 15 18 19 20 21 21 24 27 28 29 33 34 34 34 35 39 41 39 41 44 45 46 46 46 49 51 51 50 49 49 49 48 48 49 51 52 53 53 52 48 46 47
8 11 13 15 15 14 16 17 18 19 19 19 20 25 27 28 31 32 34 35 35 36 38 40 41 40 41 43 45 47 48 49 51 53 55 55 54 55 56 54 53 52 54 56 54 53 50 49 52
8 10 13 17 21 22 24 25 21 20 20 21 23 25 26 26 28 29 32 33 33 34 35 36 37 40 40 40 42 43 45 47 49 52 54 56 58 59 60 60 59 58 57 56 55 55 56 57 51
12 14 16 20 23 27 27 31 28 29 29 27 27 27 27 29 30 31 33 33 32 32 33 32 31 33 35 35 36 38 39 40 42 44 47 51 55 58 60 63 65 65 65 64 63 60 57 61 58
13 16 19 22 23 25 29 31 30 30 31 31 31 30 28 31 32 33 34 33 31 31 30 28 27 29 30 31 32 33 35 37 37 38 41 46 51 55 60 63 65 68 69 69 69 67 64 62 66
15 20 22 23 23 25 28 32 31 33 30 28 29 30 28 30 30 29 27 27 28 27 28 28 28 28 28 27 29 30 31 32 34 34 36 41 45 50 56 62 67 70 71 72 71 72 72 69 69
17 19 22 25 26 27 28 32 33 32 28 27 27 26 25 26 26 25 25 24 24 23 24 25 26 26 27 26 26 26 28 29 31 32 34 34 37 40 42 46 55 66 73 74 75 73 74 73 73
19 21 24 26 26 29 31 32 33 28 27 26 26 21 22 24 24 23 23 23 23 22 22 23 23 24 24 23 22 22 22 25 27 30 33 35 37 37 38 42 43 49 55 58 67 73 74 73 74
22 24 25 27 28 29 32 32 30 25 25 27 26 19 20 22 22 21 20 20 21 21 20 19 18 16 17 21 24 26 28 28 29 31 32 34 36 38 39 40 42 44 48 48 47 49 57 66 72
23 25 28 29 29 32 32 30 29 27 27 28 21 21 20 19 18 16 16 16 17 18 18 17 13 19 23 26 28 30 31 33 35 36 38 39 39 40 41 41 42 44 44 45 46 46 44 47 54
27 28 31 30 32 33 33 30 30 29 28 26 21 23 21 19 16 16 16 16 17 17 19 20 22 23 24 29 32 34 35 37 40 42 42 43 45 45 44 43 44 43 46 44 44 44 45 45 45
Wind_Direction
171 171 167 166 164 176 187 181 203 223 227 232 244 242 354 199 94 49 87 71 70 68 58 48 47 42 33 30 27 24 12 356 323 309 321 341 137 141 136 133 133 119 103 93 88 87 88 83 83
160 166 167 168 167 184 184 182 189 223 227 216 230 244 244 78 109 98 79 61 62 63 51 46 42 37 32 28 25 25 21 15 11 11 20 91 132 142 137 136 131 119 104 93 88 85 86 86 89
167 168 161 161 177 187 188 180 201 194 187 202 219 197 216 193 333 37 54 58 57 51 39 42 37 33 30 25 22 20 21 18 19 38 59 119 139 146 142 141 136 128 105 94 87 84 86 88 86
166 161 157 172 186 189 190 189 188 221 251 169 158 184 144 146 25 39 20 40 40 34 24 21 25 26 28 23 19 20 17 14 22 26 62 134 147 151 151 148 145 129 114 93 84 82 81 81 78
159 161 167 178 191 195 197 199 202 214 270 326 321 184 157 115 101 47 33 41 31 23 18 9 6 7 16 16 13 15 17 14 9 19 12 133 157 163 162 160 152 147 134 106 87 81 82 82 76
171 164 172 181 195 201 212 214 225 225 240 236 332 163 107 140 168 11 41 38 24 2 360 3 356 350 354 3 4 9 14 15 10 352 1 9 176 177 178 180 172 177 170 138 106 92 85 88 86
169 177 180 182 191 196 204 200 245 274 300 354 355 8 358 283 210 231 274 293 324 316 316 313 318 327 331 341 349 355 1 7 8 2 333 333 214 198 197 201 201 199 199 193 179 124 94 86 83
182 180 191 194 195 194 206 202 217 268 291 310 301 257 243 226 240 230 241 260 274 282 288 309 318 316 307 304 315 332 345 345 351 355 355 312 281 228 220 222 220 220 216 218 220 216 185 108 79
184 185 199 208 200 214 239 241 241 256 267 272 264 255 240 239 247 223 241 250 268 277 289 282 287 295 309 313 307 304 304 308 321 331 338 337 298 264 238 234 234 238 234 229 228 229 235 236 260
182 199 194 167 159 197 206 209 233 236 233 232 234 257 267 250 248 252 247 251 269 275 276 280 287 290 283 291 294 297 298 298 297 298 302 308 311 289 265 245 246 245 244 245 241 237 235 236 244
207 199 229 132 203 196 210 212 223 232 218 213 240 246 257 271 278 271 269 271 271 267 266 269 280 277 278 280 282 286 287 283 280 280 280 282 284 288 279 262 248 247 251 253 251 250 247 244 244
199 197 207 107 81 110 261 232 228 232 233 226 270 267 262 269 279 281 279 278 281 281 280 279 274 271 272 266 271 277 282 282 284 280 276 278 273 271 274 280 265 256 250 250 253 254 254 252 249
180 209 246 254 283 277 222 232 254 267 267 293 274 269 265 277 285 292 288 287 288 279 277 280 282 282 277 274 271 268 263 272 276 278 279 273 271 275 274 270 274 269 259 254 251 252 255 255 256
198 241 267 274 276 271 243 256 270 284 271 274 264 264 275 288 283 280 281 283 285 281 279 279 280 277 274 268 265 267 266 264 264 266 270 275 271 271 269 265 267 269 270 263 258 256 254 253 254
209 227 246 247 255 255 295 231 248 240 245 276 276 273 277 282 284 280 279 283 283 282 281 280 278 278 277 277 276 274 269 268 266 268 267 270 273 271 266 270 257 260 262 269 268 260 257 256 253
147 154 143 157 141 193 223 236 254 253 257 260 260 264 271 272 273 276 276 275 275 276 276 276 277 276 274 273 272 273 274 273 272 270 270 268 268 269 268 268 266 256 258 261 264 269 264 259 257
138 143 146 157 163 207 244 257 260 262 269 270 269 268 269 271 271 271 274 276 278 278 279 279 278 278 276 273 271 269 268 268 270 270 271 271 270 269 268 270 269 264 260 255 257 260 266 264 262
164 177 187 218 235 240 266 281 285 281 278 279 277 276 274 272 272 275 279 280 278 277 277 278 277 276 277 277 276 274 270 266 266 268 269 270 268 268 269 269 270 272 271 269 263 250 249 258 259
254 281 283 288 285 283 278 275 277 279 283 283 287 289 285 284 283 280 277 277 277 277 276 278 278 276 274 274 274 273 270 269 267 265 265 268 271 269 268 266 267 268 265 271 269 269 257 245 253
249 282 293 275 268 274 279 280 284 290 290 292 291 286 285 288 288 286 286 285 286 286 285 281 278 277 276 275 274 273 272 271 270 269 267 266 266 268 267 268 266 265 265 265 268 271 276 256 248
326 322 313 309 305 301 296 299 301 301 302 299 290 287 289 292 291 292 292 290 286 281 278 278 279 279 277 276 276 275 273 271 270 269 269 268 266 265 265 265 266 265 266 266 265 266 267 263 267
312 308 310 314 313 309 305 304 306 306 307 299 298 292 297 300 298 295 292 292 292 291 289 285 281 279 279 278 278 276 276 276 275 274 272 270 268 266 265 265 264 264 264 265 266 265 263 262 259
315 317 318 317 314 310 309 307 309 313 311 311 304 307 312 311 310 308 311 310 307 302 297 294 290 286 283 281 280 280 279 276 274 272 271 271 270 268 267 266 266 264 263 263 264 263 262 262 259
304 310 311 310 309 306 303 302 307 305 307 307 307 314 321 317 321 324 319 318 319 315 310 305 300 296 293 291 288 285 284 282 280 279 278 276 274 272 270 268 266 265 264 263 262 261 259 258 258
308 309 307 304 300 300 301 298 303 305 308 308 312 321 322 326 327 323 322 319 317 316 314 312 309 305 303 303 301 298 295 289 285 284 286 281 279 280 278 275 273 268 264 262 260 259 258 256 255
299 304 306 304 303 300 296 299 308 312 312 309 312 321 323 322 317 323 321 317 316 316 314 314 314 314 312 309 305 299 295 292 290 289 289 292 291 287 285 286 279 274 269 264 261 258 257 256 255
297 303 306 303 301 301 301 305 307 310 306 306 310 314 313 312 319 323 321 321 321 323 320 319 317 315 315 317 316 316 315 311 308 304 301 299 297 298 300 297 303 292 281 277 267 261 257 254 253
298 301 305 307 303 303 304 304 305 303 299 297 303 301 304 309 317 318 320 324 323 326 328 325 320 319 329 334 333 334 332 331 330 327 323 321 317 310 305 303 302 303 287 280 282 272 263 259 253
298 299 305 307 306 303 302 304 300 293 290 298 298 295 298 301 308 312 321 321 321 325 327 326 318 317 317 323 325 328 329 329 329 327 325 323 321 319 311 306 300 297 297 284 278 277 273 264 259
299 300 304 306 309 303 300 302 292 290 296 300 288 288 293 293 296 300 298 296 304 310 316 317 317 318 321 323 324 327 328 328 326 323 323 320 319 317 314 306 302 297 294 292 282 275 271 271 269
Height
5862 5867 5871 5874 5880 5882 5883 5888 5887 5886 5888 5892 5893 5897 5900 5901 5899 5903 5901 5899 5896 5896 5898 5899 5898 5898 5897 5896 5894 5893 5892 5891 5890 5889 5887 5886 5885 5885 5885 5885 5885 5885 5885 5884 5883 5882 5882 5881 5880
5861 5860 5862 5868 5878 5877 5883 5887 5885 5888 5886 5887 5891 5896 5902 5904 5902 5901 5899 5898 5898 5899 5901 5901 5900 5899 5899 5897 5896 5894 5892 5892 5891 5890 5889 5888 5887 5887 5887 5888 5887 5887 5887 5886 5885 5884 5884 5884 5883
5850 5854 5862 5871 5875 5876 5883 5886 5886 5889 5880 5887 5896 5898 5903 5905 5904 5904 5901 5899 5900 5902 5904 5903 5902 5901 5899 5899 5898 5896 5894 5893 5892 5892 5891 5891 5890 5889 5889 5889 5889 5889 5889 5888 5887 5886 5886 5885 5885
5850 5862 5868 5874 5873 5876 5881 5886 5886 5888 5867 5882 5896 5904 5903 5902 5902 5904 5904 5902 5902 5903 5905 5905 5904 5903 5900 5900 5899 5898 5896 5895 5894 5894 5893 5892 5892 5891 5891 5891 5891 5891 5891 5890 5889 5888 5887 5887 5886
5858 5865 5874 5874 5875 5879 5882 5887 5888 5886 5886 5888 5893 5897 5900 5901 5902 5903 5904 5903 5905 5906 5905 5905 5905 5904 5902 5901 5900 5899 5898 5897 5896 5895 5895 5894 5893 5893 5892 5892 5892 5892 5892 5891 5891 5890 5889 5889 5888
5863 5871 5872 5875 5881 5882 5887 5890 5887 5888 5889 5894 5897 5894 5900 5903 5902 5904 5904 5905 5906 5906 5906 5905 5904 5903 5902 5901 5901 5900 5898 5898 5897 5897 5896 5895 5895 5894 5893 5893 5892 5892 5892 5892 5891 5891 5890 5890 5890
5869 5874 5872 5874 5880 5884 5887 5891 5889 5889 5890 5889 5894 5898 5902 5904 5903 5904 5905 5905 5906 5905 5905 5904 5903 5902 5902 5901 5901 5900 5899 5898 5898 5897 5897 5896 5896 5895 5894 5893 5892 5892 5891 5891 5891 5891 5891 5891 5891
5870 5872 5875 5877 5882 5885 5887 5889 5891 5892 5892 5894 5896 5898 5901 5902 5903 5903 5905 5905 5904 5905 5904 5904 5903 5902 5900 5900 5900 5899 5898 5898 5897 5897 5897 5896 5895 5895 5895 5894 5893 5892 5891 5891 5890 5890 5890 5891 5891
5874 5878 5881 5884 5886 5888 5889 5890 5891 5893 5894 5895 5895 5895 5897 5900 5901 5901 5902 5903 5903 5902 5902 5902 5901 5900 5900 5899 5899 5898 5896 5896 5895 5895 5895 5895 5894 5893 5893 5893 5892 5892 5891 5889 5888 5889 5889 5889 5889
5874 5879 5882 5883 5883 5884 5886 5887 5887 5891 5893 5894 5894 5893 5893 5896 5898 5900 5901 5901 5901 5901 5901 5900 5900 5899 5898 5897 5896 5896 5895 5894 5894 5893 5892 5892 5893 5892 5891 5891 5891 5890 5890 5889 5888 5887 5886 5886 5886
5875 5878 5880 5882 5883 5884 5886 5887 5888 5887 5890 5892 5893 5893 5893 5893 5894 5896 5897 5897 5897 5898 5897 5897 5896 5896 5895 5895 5894 5893 5891 5890 5890 5890 5889 5889 5889 5890 5889 5888 5887 5887 5888 5888 5887 5886 5886 5885 5884
5871 5875 5878 5881 5882 5883 5884 5886 5888 5889 5889 5889 5891 5893 5893 5893 5894 5894 5893 5893 5893 5893 5891 5891 5892 5892 5891 5891 5890 5889 5888 5887 5886 5887 5887 5886 5885 5885 5886 5886 5885 5884 5883 5883 5884 5884 5883 5882 5881
5871 5874 5875 5877 5879 5881 5882 5885 5886 5888 5889 5888 5888 5890 5891 5892 5891 5891 5890 5889 5890 5889 5888 5887 5887 5887 5887 5887 5886 5884 5883 5881 5881 5880 5881 5882 5882 5882 5882 5883 5882 5881 5880 5878 5878 5878 5879 5879 5879
5873 5874 5875 5877 5878 5879 5881 5882 5885 5887 5887 5887 5888 5888 5888 5888 5889 5887 5886 5885 5885 5884 5883 5882 5882 5881 5880 5880 5878 5878 5878 5877 5876 5876 5876 5876 5877 5877 5877 5877 5876 5876 5875 5875 5874 5874 5873 5872 5873
5873 5876 5877 5876 5877 5878 5879 5882 5882 5883 5884 5885 5886 5886 5885 5883 5883 5883 5882 5881 5879 5879 5878 5877 5876 5876 5874 5873 5872 5872 5871 5871 5870 5870 5872 5872 5871 5871 5871 5870 5870 5868 5869 5869 5869 5869 5869 5868 5868
5872 5874 5875 5875 5877 5878 5880 5880 5881 5881 5882 5883 5883 5882 5881 5879 5878 5877 5876 5876 5875 5874 5872 5871 5870 5869 5868 5866 5865 5864 5863 5864 5864 5863 5863 5863 5863 5863 5862 5861 5861 5862 5863 5862 5863 5864 5864 5862 5862
5875 5875 5877 5878 5879 5878 5878 5878 5880 5880 5880 5879 5879 5878 5877 5875 5873 5872 5870 5869 5868 5867 5866 5864 5863 5862 5860 5859 5858 5857 5856 5856 5855 5854 5854 5854 5854 5854 5854 5853 5851 5852 5852 5854 5856 5857 5857 5858 5857
5877 5876 5877 5878 5878 5877 5876 5876 5875 5875 5875 5876 5875 5873 5872 5871 5869 5867 5865 5863 5861 5859 5858 5856 5855 5854 5852 5850 5849 5848 5847 5847 5846 5846 5845 5844 5844 5844 5844 5844 5844 5843 5845 5845 5845 5846 5848 5851 5851
5875 5875 5875 5874 5874 5873 5872 5872 5873 5872 5871 5870 5868 5866 5863 5862 5861 5859 5858 5856 5854 5851 5849 5847 5845 5844 5843 5842 5840 5838 5838 5837 5837 5837 5836 5835 5832 5833 5833 5834 5835 5836 5838 5831 5826 5836 5843 5841 5841
5874 5873 5872 5872 5873 5872 5872 5872 5869 5868 5867 5865 5864 5860 5857 5855 5853 5850 5848 5847 5844 5841 5837 5836 5837 5835 5831 5830 5829 5828 5827 5825 5824 5824 5824 5824 5822 5821 5822 5821 5823 5824 5824 5826 5826 5828 5831 5832 5832
5871 5869 5868 5869 5869 5869 5868 5867 5865 5864 5863 5861 5858 5854 5851 5850 5847 5844 5841 5838 5835 5832 5829 5826 5825 5822 5820 5819 5817 5816 5815 5815 5813 5811 5810 5810 5810 5809 5808 5808 5808 5810 5811 5811 5814 5815 5819 5823 5824
5870 5869 5868 5866 5863 5862 5861 5860 5860 5858 5857 5854 5851 5847 5846 5842 5839 5836 5833 5829 5826 5822 5819 5817 5816 5811 5810 5808 5806 5805 5803 5802 5801 5799 5797 5796 5795 5795 5794 5794 5794 5794 5795 5796 5798 5801 5804 5807 5812
5866 5865 5864 5862 5860 5857 5855 5851 5851 5849 5847 5845 5843 5840 5838 5834 5830 5826 5823 5820 5817 5813 5809 5807 5805 5801 5800 5799 5796 5794 5792 5791 5790 5788 5786 5783 5780 5779 5779 5779 5778 5780 5780 5780 5782 5787 5789 5790 5794
5864 5863 5860 5858 5856 5854 5849 5848 5847 5844 5842 5838 5835 5832 5829 5825 5821 5818 5813 5809 5807 5805 5802 5800 5797 5795 5792 5790 5788 5785 5783 5780 5778 5777 5775 5772 5768 5765 5763 5762 5762 5762 5762 5764 5766 5768 5772 5774 5775
5861 5859 5857 5855 5852 5850 5845 5841 5840 5838 5834 5830 5826 5824 5822 5818 5815 5813 5809 5806 5802 5799 5795 5792 5790 5788 5785 5783 5780 5777 5775 5773 5770 5768 5765 5762 5758 5754 5749 5746 5743 5743 5743 5745 5746 5749 5750 5755 5757
5857 5855 5853 5848 5846 5844 5840 5837 5833 5830 5826 5822 5820 5818 5815 5814 5811 5808 5805 5802 5798 5794 5791 5787 5784 5781 5778 5776 5773 5771 5768 5765 5762 5759 5756 5752 5748 5743 5738 5732 5728 5723 5721 5723 5725 5728 5732 5735 5738
5852 5850 5848 5843 5840 5836 5833 5830 5826 5823 5819 5816 5814 5813 5811 5809 5806 5804 5801 5797 5793 5790 5787 5783 5779 5775 5772 5770 5767 5764 5761 5757 5754 5750 5746 5742 5738 5734 5727 5722 5716 5710 5705 5702 5703 5706 5711 5715 5718
5847 5844 5841 5838 5833 5830 5826 5823 5820 5818 5814 5810 5809 5808 5806 5803 5800 5798 5795 5792 5788 5784 5780 5777 5774 5771 5768 5766 5763 5759 5755 5751 5747 5743 5738 5733 5728 5722 5717 5711 5706 5700 5695 5691 5688 5688 5690 5693 5698
5841 5837 5834 5832 5828 5824 5820 5819 5814 5811 5808 5807 5805 5802 5800 5796 5794 5792 5790 5787 5784 5780 5776 5772 5769 5767 5763 5759 5755 5752 5748 5743 5738 5733 5728 5722 5717 5713 5707 5702 5697 5691 5685 5681 5677 5675 5675 5675 5677
5834 5831 5828 5825 5822 5817 5813 5813 5807 5805 5802 5801 5799 5796 5793 5790 5786 5785 5784 5782 5779 5775 5771 5767 5763 5759 5756 5752 5747 5742 5738 5734 5728 5723 5717 5711 5706 5702 5697 5692 5687 5681 5674 5669 5666 5663 5661 5662 5662